DW7262 La Rochelle FR current weather conditions

sailwx.info

Wind from 271 at 6 knots gusting 13

Air temperature 10.6° C
Dewpoint 8.8° C

Last reported at 2015-Mar-28 21:24 UTC.
Time now 2015-Mar-29 07:29 UTC

Location: N 45°57' W 001°22'.
View on Google Maps.

See reports from other nearby stations

  
Tides and Currents Weather Stations Pressure Air Temp Water Temp Dewpoint Dewpoint Depression Visibility Wind Speed Wind Dir Waves Ship Positions
date/time (UTC)wind fromknots sea level pressurealtimeterstation pressurevisibilityair tempwater tempwave heightnotes
2015-Mar-28 21:24 271 6 gusting 13 10.6
2015-Mar-28 21:14 235 6 gusting 12 10.6
2015-Mar-28 20:52 255 7 gusting 14 10.6
2015-Mar-28 20:42 256 7 gusting 13 10.6
2015-Mar-28 20:33 198 7 gusting 13 10.6
2015-Mar-28 20:23 252 7 gusting 13 10.6
2015-Mar-28 20:00 240 7 gusting 13 10.6
2015-Mar-28 19:50 224 7 gusting 13 10.6
2015-Mar-28 19:40 232 6 gusting 12 10.6
2015-Mar-28 19:30 243 6 gusting 13 10.6
2015-Mar-28 19:19 264 6 gusting 13 10.6
2015-Mar-28 18:45 194 6 gusting 12 11.1
2015-Mar-28 18:35 255 5 gusting 11 11.1
2015-Mar-28 18:13 217 5 gusting 11 11.1
2015-Mar-28 18:04 187 5 gusting 13 11.1
2015-Mar-28 17:54 244 6 gusting 13 11.1
2015-Mar-28 17:19 243 6 gusting 13 11.1
2015-Mar-28 17:09 197 6 gusting 12 11.1
2015-Mar-28 16:35 235 6 gusting 12 11.7
2015-Mar-28 16:24 235 6 gusting 12 11.7
2015-Mar-28 15:50 252 6 gusting 12 11.7
2015-Mar-28 15:39 262 6 gusting 13 11.7
2015-Mar-28 15:17 238 5 gusting 11 11.7
2015-Mar-28 15:07 231 5 gusting 11 11.7
2015-Mar-28 14:57 245 6 gusting 11 11.7
2015-Mar-28 14:46 300 6 gusting 12 11.7
2015-Mar-28 14:12 260 6 gusting 13 11.7
2015-Mar-28 13:50 236 6 gusting 11 11.7
2015-Mar-28 13:40 240 5 gusting 11 11.7
2015-Mar-28 13:30 240 6 gusting 11 11.1
2015-Mar-28 13:20 277 6 gusting 13 11.7
2015-Mar-28 12:58 253 6 gusting 13 11.1
2015-Mar-28 12:48 257 6 gusting 11 11.7
2015-Mar-28 12:38 265 5 gusting 10 11.7
2015-Mar-28 12:27 249 5 gusting 10 11.1
2015-Mar-28 12:18 252 5 gusting 8 11.1
2015-Mar-28 12:08 233 4 gusting 10 11.1
2015-Mar-28 11:45 271 4 gusting 10 10.6
2015-Mar-28 11:35 240 5 gusting 10 10.6
2015-Mar-28 10:50 246 5 gusting 12 10.6
2015-Mar-28 10:27 250 4 gusting 7 10.6
2015-Mar-28 10:17 233 4 gusting 7 10.6
2015-Mar-28 09:55 222 4 gusting 9 10.6
2015-Mar-28 09:45 283 3 gusting 9 10.6
2015-Mar-28 09:22 259 3 gusting 7 10.6
2015-Mar-28 09:12 221 3 gusting 6 10.6
2015-Mar-28 09:02 263 3 gusting 7 10.6
2015-Mar-28 08:52 262 4 gusting 7 10.6
2015-Mar-28 08:42 266 4 gusting 4 10.6
2015-Mar-27 22:48 262 4 gusting 8 10.6
2015-Mar-27 22:38 263 4 gusting 8 10.6
2015-Mar-27 22:28 261 4 gusting 9 10.6
2015-Mar-27 22:06 273 3 gusting 7 10.6
2015-Mar-27 21:57 250 4 gusting 7 10.6
2015-Mar-27 21:46 252 3 gusting 7 10.6
2015-Mar-27 21:36 276 3 gusting 7 10.6
2015-Mar-27 21:15 253 3 gusting 9 10.6
2015-Mar-27 21:04 265 4 gusting 9 10.6
2015-Mar-27 20:54 262 4 gusting 9 10.6
2015-Mar-27 20:32 276 4 gusting 7 10.6
2015-Mar-27 20:22 253 3 gusting 6 10.6
2015-Mar-27 20:11 276 4 gusting 9 10.6
2015-Mar-27 19:49 278 4 gusting 8 10.6
2015-Mar-27 19:39 287 3 gusting 7 10.6
2015-Mar-27 19:28 235 3 gusting 7 10.0
2015-Mar-27 19:18 244 3 gusting 6 10.0
2015-Mar-27 19:08 226 2 gusting 8 10.0
2015-Mar-27 18:58 204 4 gusting 8 9.4
2015-Mar-27 18:48 169 2 gusting 9 9.4
2015-Mar-27 18:25 212 3 gusting 10 9.4
2015-Mar-27 18:16 203 4 gusting 9 9.4
2015-Mar-27 18:05 203 4 gusting 10 9.4
2015-Mar-27 17:32 158 5 gusting 11 9.4
2015-Mar-27 17:22 217 5 gusting 11 9.4
2015-Mar-27 17:12 174 5 gusting 11 9.4
2015-Mar-27 16:26 207 4 gusting 10 9.4
2015-Mar-27 16:17 204 4 gusting 9 9.4
2015-Mar-27 16:07 208 4 gusting 9 9.4
2015-Mar-27 15:56 192 3 gusting 10 9.4
2015-Mar-27 15:46 212 5 gusting 10 9.4
2015-Mar-27 15:36 201 5 gusting 9 9.4
2015-Mar-27 15:26 207 3 gusting 10 10.0
2015-Mar-27 15:15 205 4 gusting 10 10.0
2015-Mar-27 15:06 179 4 gusting 11 10.0
2015-Mar-27 14:43 245 4 gusting 10 10.0
2015-Mar-27 14:22 188 4 gusting 8 10.6
2015-Mar-27 14:12 153 4 gusting 7 10.6
2015-Mar-27 13:37 215 4 gusting 10 11.1
2015-Mar-27 13:27 229 4 gusting 10 11.1
2015-Mar-27 13:17 187 3 gusting 7 11.1
2015-Mar-27 13:07 196 3 gusting 9 11.1
2015-Mar-27 12:58 214 3 gusting 9 11.1
2015-Mar-27 12:36 202 2 gusting 6 11.1
2015-Mar-27 12:02 204 1 gusting 5 11.1
2015-Mar-27 11:52 235 2 gusting 6 10.6
2015-Mar-27 11:41 214 2 gusting 6 10.6
2015-Mar-27 10:56 179 2 gusting 4 10.6
2015-Mar-27 10:46 142 1 gusting 4 10.6
2015-Mar-27 10:24 193 1 gusting 4 10.6
2015-Mar-27 10:14 205 1 gusting 3 10.6
2015-Mar-27 10:04 245 0 gusting 2 10.6
2015-Mar-27 09:42 231 0 gusting 2 10.6
2015-Mar-27 09:33 225 0 gusting 2 10.6
2015-Mar-27 09:11 246 10.6
2015-Mar-27 09:02 269 10.0
2015-Mar-27 08:51 015 0 gusting 3 10.0
2015-Mar-27 08:29 316 0 gusting 4 9.4
2015-Mar-27 08:20 340 0 gusting 3 8.9
2015-Mar-27 07:57 326 8.3
2015-Mar-27 07:47 328 7.8
2015-Mar-27 07:24 328 6.7
2015-Mar-27 07:15 327 6.1